Вернуться в каталог

SL-14 DEB

АктивенPO
NORAD 25999·DEBRIS·🇷🇺 Russia

Запущен Sep 28, 1991 с Plesetsk Cosmodrome

Loading…

Ближайшие Пролёты (ближайшие 24 часа)

TLE

СвежийSource: Space-Track

Эпоха: Sep 14, 2026, 09:22 UTC

1 25999U 91068J   26257.39076786  .00000066  00000-0  30940-3 0  9997
2 25999  82.6953  52.8931 0063472 209.9865 177.0606 12.61984664239680

Отслеживайте SL-14 DEB в реальном времени с AllMySat

Download on the App Store